Weather History for KOZW - November, 2012

Change the Weather History Date:

Monday, November 12, 2012

  Actual Average (KFNT) Record (KFNT)
Temperature  
Mean Temperature 46 °F 40 °F  
Max Temperature 61 °F 49 °F 68 °F (2010)
Min Temperature 32 °F 32 °F 15 °F (1997)
Degree Days  
Heating Degree Days 18 25  
Month to date heating degree days 272  
Since 1 July heating degree days 968  
Cooling Degree Days 0 0  
Month to date cooling degree days 0  
Year to date cooling degree days 531  
Moisture  
Dew Point 34 °F    
Average Humidity 71    
Maximum Humidity 89    
Minimum Humidity 37    
Precipitation  
Precipitation 0.00 in 0.09 in 1.35 in (1992)
Month to date precipitation 1.08  
Year to date precipitation 27.86  
Snow  
Snow 0.00 in 0.10 in 1.40 in (1959)
Month to date snowfall 0.4  
Since 1 July snowfall 0.8  
Since 1 September snowfall 0.8  
Snow Depth -    
Sea Level Pressure  
Sea Level Pressure 30.01 in    
Wind  
Wind Speed 14 mph (WSW)    
Max Wind Speed 23 mph    
Max Gust Speed 28 mph    
Visibility 9 miles    
Events Rain , Snow    
T = Trace of Precipitation, MM = Missing Value Source: NWS Daily Summary

Daily Weather History Graph

Daily Weather History Graph

Search for Another Location

Airport or City:

Trip Planner

Search our weather history database for the weather conditions in past years. The results will help you decide how hot, cold, wet, or windy it might be!

Date:

Astronomy

Nov. 12, 2012 Rise Set
Actual Time 7:24 AM EST 5:15 PM EST
Civil Twilight 6:54 AM EST 5:45 PM EST
Nautical Twilight 6:20 AM EST 6:19 PM EST
Astronomical Twilight 5:46 AM EST 6:52 PM EST
Moon 5:47 AM EST (11/12) 4:20 PM EST (11/12)
Length of Visible Light 10h 51m
Length of Day
9h 51m
Waning Crescent, 2% of the Moon is Illuminated
Nov 12
Waning Crescent
Nov 13
New
Nov 20
First Quarter
Nov 28
Full
Dec 6
Last Quarter

Hourly Weather History & Observations

Time (EST) Temp. Windchill Dew Point Humidity Pressure Visibility Wind Dir Wind Speed Gust Speed Precip Events Conditions
12:14 AM 61.2 °F - 34.3 °F 37% 29.92 in 10.0 mi South 16.1 mph 26.5 mph N/A   Mostly Cloudy
12:35 AM 61.5 °F - 35.8 °F 38% 29.92 in 10.0 mi South 17.3 mph 26.5 mph N/A   Overcast
1:14 AM 61.2 °F - 37.4 °F 41% 29.91 in 10.0 mi South 19.6 mph 27.6 mph N/A   Overcast
1:54 AM 61.5 °F - 38.3 °F 42% 29.90 in 10.0 mi South 18.4 mph 25.3 mph N/A   Overcast
2:15 AM 61.7 °F - 39.2 °F 43% 29.90 in 10.0 mi SSW 16.1 mph 25.3 mph N/A   Overcast
2:35 AM 61.7 °F - 39.7 °F 44% 29.90 in 10.0 mi SSW 12.7 mph 20.7 mph N/A   Overcast
2:54 AM 61.7 °F - 40.5 °F 46% 29.90 in 10.0 mi SSW 17.3 mph 27.6 mph N/A   Overcast
3:15 AM 60.8 °F - 41.5 °F 49% 29.90 in 10.0 mi SSW 15.0 mph 24.2 mph N/A   Light Drizzle
3:35 AM 58.1 °F - 45.0 °F 62% 29.91 in 10.0 mi SSW 17.3 mph 23.0 mph N/A Rain Rain
4:15 AM 55.0 °F - 49.6 °F 82% 29.89 in 7.0 mi South 16.1 mph 21.9 mph N/A Rain Light Rain
4:34 AM 54.9 °F - 50.5 °F 85% 29.89 in 7.0 mi SSW 11.5 mph 18.4 mph N/A Rain Rain
4:54 AM 54.9 °F - 51.1 °F 87% 29.88 in 7.0 mi South 10.4 mph - N/A Rain Rain
5:15 AM 54.7 °F - 51.3 °F 88% 29.89 in 7.0 mi SSW 10.4 mph 16.1 mph N/A Rain Rain
5:34 AM 54.7 °F - 51.4 °F 89% 29.89 in 5.0 mi SW 13.8 mph - N/A Rain Rain
5:55 AM 53.6 °F - 50.0 °F 88% 29.89 in 7.0 mi SW 10.4 mph 16.1 mph N/A Rain Rain
6:15 AM 52.9 °F - 49.5 °F 88% 29.88 in 7.0 mi SSW 8.1 mph - N/A Rain Light Rain
6:34 AM 52.7 °F - 49.3 °F 88% 29.88 in 10.0 mi SW 9.2 mph - N/A Rain Light Rain
6:55 AM 52.5 °F - 49.1 °F 88% 29.89 in 7.0 mi SW 8.1 mph - N/A Rain Light Rain
7:34 AM 51.8 °F - 48.7 °F 89% 29.90 in 7.0 mi West 23.0 mph 27.6 mph N/A Rain Rain
7:55 AM 47.3 °F - 43.7 °F 87% 29.91 in 10.0 mi West 15.0 mph - N/A   Drizzle
8:15 AM 46.4 °F 40.1 °F 42.6 °F 87% 29.93 in 10.0 mi West 15.0 mph - N/A   Overcast
8:34 AM 46.2 °F 41.2 °F 42.6 °F 87% 29.93 in 7.0 mi West 10.4 mph - N/A Rain Light Rain
8:55 AM 45.5 °F 39.9 °F 41.9 °F 87% 29.93 in 7.0 mi WSW 11.5 mph 16.1 mph N/A Rain Light Rain
9:15 AM 44.8 °F 38.7 °F 40.8 °F 86% 29.93 in 4.0 mi WSW 12.7 mph 20.7 mph N/A Rain Rain
9:34 AM 44.2 °F 38.8 °F 40.3 °F 86% 29.93 in 7.0 mi West 10.4 mph 16.1 mph N/A Rain Light Rain
9:55 AM 43.9 °F 38.3 °F 40.1 °F 87% 29.96 in 7.0 mi WSW 10.4 mph 20.7 mph N/A Rain Light Rain
10:14 AM 43.9 °F 37.9 °F 39.9 °F 86% 29.96 in 7.0 mi WSW 11.5 mph 17.3 mph N/A Rain Light Rain
10:55 AM 43.0 °F 35.7 °F 39.2 °F 86% 29.97 in 7.0 mi WSW 15.0 mph 19.6 mph N/A   Light Drizzle
11:14 AM 42.3 °F 34.4 °F 38.1 °F 85% 29.98 in 4.0 mi West 16.1 mph 24.2 mph N/A Rain Light Rain
11:35 AM 40.6 °F 33.0 °F 36.9 °F 86% 29.99 in 5.0 mi West 13.8 mph - N/A Rain Rain
11:55 AM 40.3 °F 33.9 °F 36.7 °F 87% 29.98 in 10.0 mi West 10.4 mph - N/A Rain Light Rain
12:14 PM 39.9 °F 33.9 °F 36.5 °F 88% 29.99 in 10.0 mi WSW 9.2 mph - N/A Rain Light Rain
12:35 PM 40.1 °F 32.4 °F 36.3 °F 86% 29.98 in 10.0 mi WSW 13.8 mph 17.3 mph N/A   Overcast
12:55 PM 39.2 °F 31.2 °F 35.1 °F 85% 29.98 in 10.0 mi West 13.8 mph 21.9 mph N/A   Overcast
1:35 PM 39.2 °F 31.2 °F 34.5 °F 83% 29.99 in 10.0 mi WSW 13.8 mph 19.6 mph N/A   Overcast
1:55 PM 38.3 °F 29.7 °F 32.2 °F 79% 30.00 in 10.0 mi West 15.0 mph 21.9 mph N/A   Overcast
2:14 PM 37.8 °F 29.4 °F 32.0 °F 80% 30.00 in 10.0 mi WSW 13.8 mph 23.0 mph N/A   Overcast
2:35 PM 37.6 °F 27.7 °F 28.8 °F 70% 30.01 in 10.0 mi West 18.4 mph 23.0 mph N/A   Overcast
2:54 PM 37.8 °F 28.6 °F 29.5 °F 72% 30.02 in 10.0 mi West 16.1 mph 24.2 mph N/A   Mostly Cloudy
3:35 PM 36.1 °F 28.2 °F 26.4 °F 68% 30.03 in 10.0 mi West 11.5 mph - N/A   Scattered Clouds
3:54 PM 38.8 °F 30.4 °F 27.0 °F 62% 30.03 in 10.0 mi WSW 15.0 mph 20.7 mph N/A   Mostly Cloudy
4:15 PM 37.9 °F 30.5 °F 26.1 °F 62% 30.04 in 10.0 mi WSW 11.5 mph 18.4 mph N/A   Overcast
4:35 PM 37.4 °F 29.8 °F 25.7 °F 63% 30.04 in 10.0 mi WSW 11.5 mph 17.3 mph N/A   Mostly Cloudy
4:54 PM 36.9 °F 27.8 °F 24.6 °F 61% 30.06 in 10.0 mi West 15.0 mph 23.0 mph N/A   Mostly Cloudy
5:15 PM 36.0 °F 26.7 °F 23.7 °F 61% 30.07 in 10.0 mi WSW 15.0 mph 19.6 mph N/A   Scattered Clouds
5:35 PM 35.6 °F 27.1 °F 23.0 °F 60% 30.08 in 10.0 mi WSW 12.7 mph 21.9 mph N/A   Mostly Cloudy
5:54 PM 35.6 °F 25.9 °F 22.6 °F 59% 30.09 in 10.0 mi West 16.1 mph 20.7 mph N/A   Overcast
6:15 PM 34.9 °F 25.3 °F 22.5 °F 61% 30.11 in 10.0 mi West 15.0 mph - N/A   Overcast
6:35 PM 34.9 °F 25.3 °F 21.7 °F 59% 30.12 in 10.0 mi WSW 15.0 mph 21.9 mph N/A   Overcast
6:54 PM 34.7 °F 25.5 °F 22.1 °F 60% 30.13 in 10.0 mi West 13.8 mph 19.6 mph N/A   Overcast
7:15 PM 34.5 °F 24.8 °F 21.7 °F 60% 30.14 in 10.0 mi West 15.0 mph 19.6 mph N/A   Overcast
7:54 PM 34.3 °F 25.9 °F 21.2 °F 59% 30.15 in 10.0 mi WSW 11.5 mph 18.4 mph N/A   Overcast
8:15 PM 34.3 °F 26.5 °F 21.7 °F 60% 30.15 in 10.0 mi WSW 10.4 mph 17.3 mph N/A   Overcast
8:34 PM 34.2 °F 26.2 °F 21.7 °F 60% 30.15 in 10.0 mi WSW 10.4 mph 17.3 mph N/A   Overcast
8:55 PM 34.3 °F 24.6 °F 21.7 °F 60% 30.16 in 10.0 mi WSW 15.0 mph 19.6 mph N/A   Overcast
9:15 PM 34.2 °F 25.2 °F 22.5 °F 62% 30.17 in 10.0 mi SW 12.7 mph - N/A   Overcast
9:34 PM 34.0 °F 26.0 °F 23.2 °F 65% 30.17 in 10.0 mi WSW 10.4 mph 19.6 mph N/A   Overcast
9:55 PM 33.8 °F 25.8 °F 23.5 °F 66% 30.18 in 10.0 mi WSW 10.4 mph 19.6 mph N/A   Overcast
10:14 PM 33.8 °F 23.5 °F 23.9 °F 67% 30.19 in 10.0 mi SW 16.1 mph 19.6 mph N/A Snow Light Snow
10:35 PM 33.4 °F 24.3 °F 23.9 °F 68% 30.20 in 10.0 mi SW 12.7 mph - N/A Snow Light Snow
10:54 PM 33.1 °F 23.9 °F 23.7 °F 68% 30.21 in 10.0 mi SW 12.7 mph - N/A   Overcast
11:14 PM 33.1 °F 24.9 °F 23.9 °F 69% 30.22 in 10.0 mi SW 10.4 mph 16.1 mph N/A Snow Light Snow
11:35 PM 32.9 °F 24.1 °F 24.4 °F 71% 30.22 in 10.0 mi WSW 11.5 mph 16.1 mph N/A Snow Light Snow
11:54 PM 32.9 °F 25.3 °F 24.8 °F 72% 30.22 in 10.0 mi WSW 9.2 mph - N/A   Overcast